TimeEDT,TemperatureF,Dew PointF,Humidity,Sea Level PressureIn,VisibilityMPH,Wind Direction,Wind SpeedMPH,Gust SpeedMPH,PrecipitationIn,Events,Conditions,WindDirDegrees,DateUTC
12:54 AM,42.1,39.9,92,30.09,10.0,SW,3.5,-,N/A,,Clear,230,2013-10-08 04:54:00
1:54 AM,39.9,39.0,97,30.11,10.0,WSW,3.5,-,N/A,,Clear,240,2013-10-08 05:54:00
2:54 AM,37.0,36.0,96,30.13,10.0,Calm,Calm,-,N/A,,Clear,0,2013-10-08 06:54:00
3:54 AM,39.0,37.9,96,30.14,10.0,SW,3.5,-,N/A,,Clear,220,2013-10-08 07:54:00
4:54 AM,37.9,36.0,93,30.17,10.0,WSW,3.5,-,N/A,,Clear,240,2013-10-08 08:54:00
5:54 AM,36.0,35.1,97,30.19,10.0,SW,3.5,-,N/A,,Clear,230,2013-10-08 09:54:00
6:54 AM,34.0,33.1,96,30.21,10.0,Calm,Calm,-,N/A,,Clear,0,2013-10-08 10:54:00
7:54 AM,34.0,33.1,96,30.23,10.0,SW,3.5,-,N/A,,Clear,220,2013-10-08 11:54:00
8:54 AM,41.0,39.9,96,30.25,10.0,Calm,Calm,-,N/A,,Clear,0,2013-10-08 12:54:00
9:54 AM,48.0,44.1,86,30.25,10.0,South,3.5,-,N/A,,Clear,190,2013-10-08 13:54:00
10:54 AM,55.0,45.0,69,30.26,10.0,SSW,8.1,-,N/A,,Clear,200,2013-10-08 14:54:00
11:54 AM,59.0,42.1,53,30.26,10.0,South,6.9,-,N/A,,Clear,190,2013-10-08 15:54:00
12:54 PM,61.0,43.0,52,30.25,10.0,SW,8.1,-,N/A,,Clear,220,2013-10-08 16:54:00
1:54 PM,63.0,44.1,50,30.24,10.0,Variable,5.8,-,N/A,,Clear,0,2013-10-08 17:54:00
2:54 PM,64.9,42.1,43,30.22,10.0,SSW,6.9,-,N/A,,Partly Cloudy,210,2013-10-08 18:54:00
3:54 PM,64.9,46.0,50,30.22,10.0,South,4.6,17.3,N/A,,Partly Cloudy,190,2013-10-08 19:54:00
4:54 PM,66.0,46.0,48,30.21,10.0,SSW,9.2,-,N/A,,Clear,200,2013-10-08 20:54:00
5:54 PM,64.9,46.0,50,30.21,10.0,South,5.8,-,N/A,,Clear,170,2013-10-08 21:54:00
6:54 PM,57.9,50.0,75,30.22,10.0,SE,8.1,-,N/A,,Clear,140,2013-10-08 22:54:00
7:54 PM,54.0,48.0,80,30.23,10.0,SE,6.9,-,N/A,,Clear,140,2013-10-08 23:54:00
8:54 PM,52.0,48.0,86,30.23,10.0,South,5.8,-,N/A,,Clear,170,2013-10-09 00:54:00
9:54 PM,50.0,48.0,93,30.24,10.0,SSE,4.6,-,N/A,,Clear,160,2013-10-09 01:54:00
10:54 PM,46.9,46.0,97,30.24,10.0,South,4.6,-,N/A,,Clear,170,2013-10-09 02:54:00
11:54 PM,44.1,44.1,100,30.24,10.0,SSE,8.1,-,N/A,,Clear,150,2013-10-09 03:54:00